�������l�o���
Date,Time,MP-1(��Sv/h),MP-2(��Sv/h),MP-3(��Sv/h),MP-4(��Sv/h),MP-5(��Sv/h),MP-6(��Sv/h),MP-7(��Sv/h),MP-8(��Sv/h),����,����(m/s),���J
2019/10/10,00:00,0.728,1.032,0.712,1.274,0.932,0.416,0.727,0.687,-,-,��
2019/10/10,00:10,0.725,1.034,0.712,1.272,0.931,0.417,0.727,0.689,-,-,��
2019/10/10,00:20,0.726,1.033,0.710,1.274,0.930,0.416,0.729,0.686,-,-,��
2019/10/10,00:30,0.726,1.033,0.712,1.274,0.928,0.417,0.725,0.687,-,-,��
2019/10/10,00:40,0.727,1.030,0.713,1.275,0.930,0.417,0.728,0.686,-,-,��
2019/10/10,00:50,0.724,1.033,0.713,1.274,0.931,0.418,0.727,0.687,-,-,��
2019/10/10,01:00,0.728,1.033,0.712,1.272,0.929,0.418,0.726,0.687,-,-,��
2019/10/10,01:10,0.726,1.034,0.713,1.275,0.930,0.416,0.726,0.687,-,-,��
2019/10/10,01:20,0.725,1.033,0.712,1.274,0.931,0.417,0.727,0.687,-,-,��
2019/10/10,01:30,0.726,1.032,0.711,1.274,0.931,0.417,0.727,0.686,-,-,��
2019/10/10,01:40,0.726,1.033,0.712,1.274,0.930,0.417,0.725,0.688,-,-,��
2019/10/10,01:50,0.726,1.033,0.712,1.275,0.932,0.417,0.726,0.687,-,-,��
2019/10/10,02:00,0.726,1.029,0.712,1.275,0.929,0.418,0.727,0.687,-,-,��
2019/10/10,02:10,0.727,1.031,0.713,1.275,0.931,0.417,0.726,0.688,-,-,��
2019/10/10,02:20,0.725,1.028,0.712,1.276,0.930,0.417,0.728,0.688,-,-,��
2019/10/10,02:30,0.725,1.029,0.710,1.273,0.930,0.416,0.727,0.687,-,-,��
2019/10/10,02:40,0.725,1.030,0.712,1.274,0.928,0.417,0.727,0.688,-,-,��
2019/10/10,02:50,0.728,1.031,0.712,1.275,0.930,0.417,0.727,0.687,-,-,��
2019/10/10,03:00,0.726,1.032,0.713,1.274,0.929,0.417,0.726,0.687,-,-,��
2019/10/10,03:10,0.726,1.031,0.714,1.274,0.930,0.416,0.726,0.687,-,-,��
2019/10/10,03:20,0.726,1.032,0.713,1.275,0.930,0.417,0.727,0.688,-,-,��
2019/10/10,03:30,0.725,1.030,0.713,1.276,0.932,0.416,0.727,0.686,-,-,��
2019/10/10,03:40,0.725,1.030,0.712,1.275,0.929,0.417,0.727,0.687,-,-,��
2019/10/10,03:50,0.725,1.031,0.712,1.275,0.930,0.416,0.725,0.687,-,-,��
2019/10/10,04:00,0.727,1.031,0.711,1.276,0.930,0.417,0.727,0.687,-,-,��
2019/10/10,04:10,0.726,1.031,0.712,1.276,0.929,0.416,0.726,0.687,-,-,��
2019/10/10,04:20,0.724,1.030,0.711,1.275,0.930,0.418,0.726,0.688,-,-,��
2019/10/10,04:30,0.725,1.030,0.713,1.274,0.928,0.416,0.727,0.688,-,-,��
2019/10/10,04:40,0.725,1.029,0.713,1.273,0.933,0.416,0.726,0.686,-,-,��
2019/10/10,04:50,0.725,1.030,0.710,1.276,0.930,0.417,0.726,0.687,-,-,��
2019/10/10,05:00,0.723,1.031,0.711,1.274,0.929,0.416,0.727,0.688,-,-,��
2019/10/10,05:10,0.725,1.030,0.715,1.277,0.930,0.417,0.726,0.686,-,-,��
2019/10/10,05:20,0.725,1.031,0.710,1.274,0.930,0.416,0.727,0.689,-,-,��
2019/10/10,05:30,0.726,1.032,0.712,1.275,0.929,0.416,0.725,0.688,-,-,��
2019/10/10,05:40,0.726,1.031,0.711,1.274,0.929,0.416,0.729,0.687,-,-,��
2019/10/10,05:50,0.724,1.030,0.711,1.273,0.928,0.417,0.724,0.688,-,-,��
2019/10/10,06:00,0.725,1.029,0.711,1.272,0.928,0.416,0.726,0.687,-,-,��
2019/10/10,06:10,0.725,1.028,0.712,1.272,0.928,0.417,0.726,0.688,-,-,��
2019/10/10,06:20,0.725,1.029,0.712,1.275,0.929,0.417,0.727,0.688,-,-,��
2019/10/10,06:30,0.727,1.032,0.712,1.273,0.929,0.416,0.728,0.687,-,-,��
2019/10/10,06:40,0.725,1.028,0.711,1.276,0.929,0.419,0.726,0.688,-,-,��
2019/10/10,06:50,0.727,1.030,0.712,1.275,0.929,0.416,0.725,0.687,-,-,��
2019/10/10,07:00,0.726,1.032,0.710,1.276,0.930,0.416,0.727,0.687,-,-,��
2019/10/10,07:10,0.725,1.030,0.712,1.275,0.930,0.418,0.726,0.687,-,-,��
2019/10/10,07:20,0.727,1.034,0.713,1.275,0.931,0.417,0.728,0.687,-,-,��
2019/10/10,07:30,0.724,1.032,0.712,1.274,0.932,0.418,0.728,0.689,-,-,��
2019/10/10,07:40,0.727,1.032,0.713,1.272,0.931,0.418,0.726,0.688,-,-,��
2019/10/10,07:50,0.728,1.031,0.715,1.276,0.929,0.417,0.731,0.689,-,-,��
2019/10/10,08:00,0.729,1.030,0.711,1.276,0.930,0.416,0.729,0.688,-,-,��
2019/10/10,08:10,0.730,1.028,0.710,1.277,0.931,0.415,0.727,0.689,-,-,��
2019/10/10,08:20,0.727,1.028,0.713,1.274,0.930,0.418,0.726,0.688,-,-,��
2019/10/10,08:30,0.728,1.026,0.713,1.276,0.932,0.417,0.726,0.688,-,-,��
2019/10/10,08:40,0.726,1.026,0.711,1.276,0.930,0.417,0.728,0.689,-,-,��
2019/10/10,08:50,0.727,1.027,0.711,1.274,0.932,0.417,0.725,0.689,-,-,��
2019/10/10,09:00,0.727,1.028,0.712,1.276,0.930,0.416,0.727,0.690,-,-,��
2019/10/10,09:10,0.726,1.028,0.712,1.276,0.930,0.417,0.727,0.690,-,-,��
2019/10/10,09:20,0.722,1.027,0.713,1.278,0.930,0.417,0.726,0.689,-,-,��
2019/10/10,09:30,0.722,1.025,0.712,1.277,0.933,0.415,0.726,0.689,-,-,��
2019/10/10,09:40,0.724,1.025,0.709,1.278,0.929,0.416,0.726,0.685,-,-,��
2019/10/10,09:50,0.724,1.026,0.709,1.278,0.931,0.416,0.727,0.686,-,-,��
2019/10/10,10:00,0.723,1.027,0.710,1.276,0.931,0.414,0.728,0.686,-,-,��
2019/10/10,10:10,0.723,1.029,0.710,1.278,0.931,0.416,0.727,0.687,-,-,��
2019/10/10,10:20,0.723,1.026,0.711,1.277,0.931,0.415,0.728,0.687,-,-,��
2019/10/10,10:30,0.725,1.029,0.711,1.279,0.933,0.417,0.727,0.685,-,-,��
2019/10/10,10:40,0.724,1.029,0.710,1.277,0.932,0.415,0.727,0.688,-,-,��
2019/10/10,10:50,0.724,1.031,0.714,1.278,0.932,0.416,0.727,0.688,-,-,��
2019/10/10,11:00,0.725,1.029,0.711,1.277,0.933,0.415,0.728,0.687,-,-,��
2019/10/10,11:10,0.725,1.028,0.711,1.276,0.933,0.415,0.727,0.686,-,-,��
2019/10/10,11:20,0.730,1.032,0.714,1.277,0.933,0.415,0.726,0.685,-,-,��
2019/10/10,11:30,0.729,1.029,0.712,1.279,0.933,0.416,0.729,0.688,-,-,��
2019/10/10,11:40,0.729,1.032,0.712,1.280,0.933,0.416,0.726,0.685,-,-,��
2019/10/10,11:50,0.726,1.033,0.713,1.277,0.935,0.416,0.727,0.687,-,-,��
2019/10/10,12:00,0.726,1.034,0.711,1.279,0.934,0.417,0.728,0.687,-,-,��
2019/10/10,12:10,0.730,1.035,0.714,1.279,0.934,0.416,0.728,0.689,-,-,��
2019/10/10,12:20,0.730,1.036,0.713,1.277,0.935,0.418,0.727,0.686,-,-,��
2019/10/10,12:30,0.730,1.037,0.714,1.277,0.936,0.418,0.727,0.687,-,-,��
2019/10/10,12:40,0.731,1.037,0.714,1.280,0.936,0.417,0.728,0.688,-,-,��
2019/10/10,12:50,0.730,1.038,0.715,1.278,0.936,0.417,0.728,0.686,-,-,��
2019/10/10,13:00,0.728,1.035,0.714,1.278,0.936,0.416,0.728,0.688,-,-,��
2019/10/10,13:10,0.727,1.030,0.714,1.277,0.936,0.414,0.727,0.688,-,-,��
2019/10/10,13:20,0.727,1.032,0.713,1.279,0.936,0.415,0.729,0.688,-,-,��
2019/10/10,13:30,0.727,1.031,0.712,1.278,0.936,0.416,0.729,0.688,-,-,��
2019/10/10,13:40,0.726,1.033,0.714,1.279,0.936,0.415,0.728,0.688,-,-,��
2019/10/10,13:50,0.727,1.031,0.714,1.279,0.936,0.416,0.729,0.689,-,-,��
2019/10/10,14:00,0.730,1.032,0.713,1.279,0.935,0.416,0.728,0.688,-,-,��
2019/10/10,14:10,0.728,1.033,0.712,1.280,0.936,0.416,0.728,0.688,-,-,��
2019/10/10,14:20,0.727,1.034,0.713,1.280,0.935,0.415,0.727,0.688,-,-,��
2019/10/10,14:30,0.727,1.033,0.713,1.279,0.936,0.416,0.729,0.687,-,-,��
2019/10/10,14:40,0.729,1.032,0.713,1.280,0.936,0.416,0.728,0.688,-,-,��
2019/10/10,14:50,0.730,1.035,0.713,1.276,0.936,0.417,0.728,0.687,-,-,��
2019/10/10,15:00,0.732,1.034,0.712,1.278,0.936,0.417,0.728,0.689,-,-,��
2019/10/10,15:10,0.731,1.035,0.714,1.277,0.937,0.416,0.728,0.688,-,-,��
2019/10/10,15:20,0.730,1.036,0.714,1.277,0.935,0.419,0.728,0.687,-,-,��
2019/10/10,15:30,0.732,1.035,0.713,1.280,0.937,0.416,0.728,0.687,-,-,��
2019/10/10,15:40,0.731,1.037,0.712,1.279,0.934,0.418,0.728,0.690,-,-,��
2019/10/10,15:50,0.733,1.038,0.717,1.281,0.939,0.417,0.727,0.688,-,-,��
2019/10/10,16:00,0.730,1.037,0.714,1.281,0.938,0.417,0.728,0.688,-,-,��
2019/10/10,16:10,0.732,1.037,0.714,1.280,0.938,0.418,0.729,0.688,-,-,��
2019/10/10,16:20,0.732,1.040,0.714,1.279,0.937,0.417,0.728,0.688,-,-,��
2019/10/10,16:30,0.733,1.041,0.714,1.281,0.937,0.417,0.729,0.687,-,-,��
2019/10/10,16:40,0.731,1.042,0.714,1.281,0.937,0.420,0.729,0.690,-,-,��
2019/10/10,16:50,0.732,1.046,0.715,1.278,0.936,0.419,0.729,0.690,��,1.8,��
2019/10/10,17:00,0.732,1.045,0.714,1.281,0.936,0.419,0.729,0.690,��쓌,1.5,��
2019/10/10,17:10,0.732,1.046,0.714,1.280,0.935,0.420,0.729,0.689,��,1.4,��
2019/10/10,17:20,0.733,1.045,0.716,1.280,0.936,0.420,0.731,0.690,��,1.6,��
2019/10/10,17:30,0.733,1.044,0.717,1.279,0.939,0.420,0.729,0.689,��쐼,1.6,��
2019/10/10,17:40,0.732,1.043,0.716,1.280,0.938,0.420,0.730,0.692,��쐼,1.7,��
2019/10/10,17:50,0.733,1.045,0.718,1.281,0.940,0.420,0.731,0.690,��쐼,2.0,��
2019/10/10,18:00,0.734,1.046,0.717,1.282,0.940,0.420,0.730,0.690,��쐼,1.4,��
2019/10/10,18:10,0.734,1.044,0.720,1.281,0.940,0.420,0.729,0.688,��쐼,1.6,��
2019/10/10,18:20,0.733,1.043,0.716,1.281,0.941,0.421,0.729,0.690,��쐼,1.1,��
2019/10/10,18:30,0.733,1.046,0.719,1.281,0.940,0.420,0.729,0.691,��쐼,1.2,��
2019/10/10,18:40,0.733,1.045,0.718,1.281,0.941,0.420,0.730,0.690,��,1.1,��
2019/10/10,18:50,0.734,1.043,0.719,1.282,0.940,0.419,0.729,0.689,��,1.1,��
2019/10/10,19:00,0.734,1.044,0.717,1.282,0.940,0.419,0.730,0.688,��,0.6,��
2019/10/10,19:10,0.731,1.046,0.718,1.280,0.943,0.419,0.728,0.690,-,CALM,��
2019/10/10,19:20,0.733,1.044,0.718,1.280,0.937,0.420,0.728,0.691,-,CALM,��
2019/10/10,19:30,0.732,1.044,0.718,1.278,0.938,0.420,0.729,0.689,�쐼,0.5,��
2019/10/10,19:40,0.734,1.043,0.716,1.282,0.940,0.418,0.728,0.689,��쐼,0.7,��
2019/10/10,19:50,0.732,1.042,0.717,1.281,0.938,0.419,0.729,0.689,��,0.5,��
2019/10/10,20:00,0.732,1.044,0.718,1.281,0.939,0.419,0.728,0.689,�쐼,0.6,��
2019/10/10,20:10,0.730,1.044,0.717,1.280,0.941,0.419,0.729,0.690,���쐼,1.2,��
2019/10/10,20:20,0.732,1.044,0.718,1.279,0.941,0.419,0.728,0.690,��,1.0,��
2019/10/10,20:30,0.733,1.043,0.718,1.280,0.941,0.419,0.729,0.690,���k��,0.9,��
2019/10/10,20:40,0.734,1.042,0.718,1.281,0.938,0.420,0.728,0.689,�k��,0.7,��
2019/10/10,20:50,0.733,1.042,0.717,1.282,0.941,0.420,0.728,0.690,���k��,1.0,��
2019/10/10,21:00,0.734,1.041,0.718,1.281,0.942,0.420,0.728,0.690,�k��,0.7,��
2019/10/10,21:10,0.732,1.042,0.719,1.282,0.941,0.420,0.728,0.690,�k�k��,0.5,��
2019/10/10,21:20,0.733,1.043,0.717,1.280,0.940,0.419,0.728,0.690,�k��,0.6,��
2019/10/10,21:30,0.733,1.040,0.719,1.280,0.941,0.418,0.729,0.690,�k��,1.3,��
2019/10/10,21:40,0.734,1.044,0.720,1.280,0.939,0.418,0.728,0.689,�k��,1.2,��
2019/10/10,21:50,0.733,1.041,0.719,1.280,0.942,0.418,0.728,0.689,�k��,1.2,��
2019/10/10,22:00,0.733,1.042,0.718,1.281,0.939,0.417,0.727,0.690,�k�k��,1.1,��
2019/10/10,22:10,0.733,1.042,0.717,1.282,0.938,0.418,0.728,0.690,�k��,1.6,��
2019/10/10,22:20,0.734,1.042,0.717,1.280,0.942,0.418,0.727,0.691,�k�k��,1.3,��
2019/10/10,22:30,0.732,1.041,0.718,1.280,0.941,0.418,0.729,0.689,�k�k��,2.0,��
2019/10/10,22:40,0.732,1.044,0.719,1.282,0.941,0.418,0.727,0.690,�k�k��,1.8,��
2019/10/10,22:50,0.733,1.043,0.718,1.284,0.940,0.418,0.728,0.689,�k�k��,2.2,��
2019/10/10,23:00,0.732,1.043,0.719,1.284,0.940,0.418,0.730,0.690,�k�k��,2.6,�L
2019/10/10,23:10,0.735,1.043,0.719,1.282,0.941,0.418,0.728,0.689,�k�k��,2.9,�L
2019/10/10,23:20,0.734,1.043,0.717,1.283,0.940,0.418,0.729,0.689,�k�k��,2.4,��
2019/10/10,23:30,0.733,1.042,0.718,1.283,0.939,0.419,0.729,0.692,�k�k��,3.0,�L
2019/10/10,23:40,0.733,1.042,0.718,1.281,0.941,0.417,0.727,0.691,�k�k��,3.5,�L
2019/10/10,23:50,0.732,1.044,0.720,1.280,0.940,0.419,0.729,0.690,�k�k��,3.8,�L
